Location: Ebersheim
(48.3033°N, 7.4991°E)
Time: 14:22:20
(UTC+00:00)

Lacrosse 4 Rocket - Pass Details

Date: 27 February 2020
Orbit: 537 x 622 km, 68.0° (Epoch: 27 March)

Event Time Altitude Azimuth Distance (km) Brightness Sun altitude
Rises 17:42:44 0° 259° (W) 2,784 7.5 -6.2°
Reaches altitude 10° 17:45:34 10° 279° (W) 1,908 5.6 -6.7°
Maximum altitude 17:48:30 18° 323° (NW) 1,489 4.0 -7.2°
Drops below altitude 10° 17:51:30 10° 6° (N) 1,950 4.0 -7.7°
Sets 17:54:27 0° 26° (NNE) 2,873 4.7 -8.2°
